#timestamp,LO_Frequency,Hit,StdDev 
1510588815.4,286047001.8,N
1510588835.3,286047000.5,N
1510588855.1,286046998.4,N
1510588875.8,286047002.2,N
1510588895.7,286047007.3,Y
1510588915.5,286047009.1,P
1510588935.3,286047005.3,N
1510588955.2,286047005.6,N
1510588975.9,286047005.2,N
1510588995.7,286047001.5,N
1510589015.6,286046999.0,N
1510589035.4,286046997.4,N
1510589055.2,286046997.9,N
1510589075.1,286046993.8,N
1510589076.0,286046993.8,N
1510589095.8,286046993.0,N
1510589115.6,286046993.0,N
1510589135.5,286046993.2,N
1510589155.3,286046990.9,N
1510589175.1,286046991.2,N
1510589195.8,286046992.0,N
1510589215.7,286046993.9,N
1510589235.5,286046992.5,N
1510589255.3,286046993.2,N
1510589275.2,286046993.6,N
1510589295.9,286046995.7,N
1510589315.7,286046996.3,N
1510589335.6,286046994.2,N
1510589355.4,286046996.1,N
1510589375.2,286046994.7,N
1510589395.1,286046993.9,N
1510589396.0,286046993.9,N
1510589415.8,286046995.1,N
1510589435.6,286046994.0,N
1510589455.5,286046992.7,N
1510589475.3,286046994.4,N
1510589495.1,286046990.4,N
1510589515.8,286046991.1,N
1510589535.7,286046991.5,N
1510589555.5,286046993.2,N
1510589575.3,286046987.0,Y
1510589595.2,286046990.2,P
1510589615.0,286046992.7,P
1510589615.9,286046992.7,P
1510589635.8,286046991.7,Y
1510589655.6,286047007.5,P
1510589675.4,286047003.6,N
1510589695.2,286047004.1,N
1510589715.1,286047007.2,N
1510589716.0,286047007.2,N
1510589735.8,286047003.2,N
1510589755.6,286047001.8,N
1510589775.5,286047002.0,N
1510589795.3,286047002.2,N
1510589815.1,286047000.5,N
1510589835.9,286047000.2,N
1510589855.7,286047002.3,N
1510589875.5,286047004.2,N
1510589895.4,286047005.0,N
1510589915.2,286047003.2,N
1510589935.0,286047004.0,N
1510589935.9,286047004.0,N
1510589955.8,286047004.1,N
1510589975.6,286047002.4,N
1510589995.4,286047004.2,N
1510590015.3,286047002.3,N
1510590035.1,286047002.7,N
1510590036.0,286047002.7,N
1510590055.8,286047000.5,N
1510590075.7,286047001.5,N
1510590095.5,286047002.3,N
1510590115.3,286047003.8,N
1510590135.1,286047003.4,N
1510590155.9,286047004.4,N
1510590175.7,286047003.2,N
1510590195.5,286047004.9,N
1510590215.4,286047003.3,N
1510590235.2,286047005.3,Y
1510590255.0,286047004.8,P
1510590255.9,286047004.8,P
1510590275.8,286047007.6,P
1510590295.6,286047007.0,Y
1510590315.4,286047001.8,P
1510590335.3,286047004.0,N
1510590355.1,286047002.7,N
1510590375.8,286047001.8,N
1510590395.7,286047002.8,N
1510590415.5,286047002.4,N
1510590435.3,286047001.9,N
1510590455.2,286047002.4,N
1510590475.9,286047005.8,Y
1510590495.7,286047002.3,P
1510590515.6,286046998.3,P
1510590535.4,286046999.4,N
1510590555.2,286046997.5,N
1510590575.1,286046995.1,N
1510590576.0,286046995.1,N
1510590595.8,286046996.5,N
1510590615.6,286046999.1,N
1510590635.5,286046999.5,N
1510590655.3,286047000.6,N
1510590675.1,286047000.3,N
1510590695.8,286047002.4,N
1510590715.7,286047000.2,N
1510590735.5,286047001.9,N
1510590755.3,286047002.6,N
1510590775.2,286047003.6,N
1510590795.0,286047004.2,N
1510590795.9,286047004.2,N
1510590815.7,286047003.5,N
1510590835.6,286047004.3,N
1510590855.4,286047002.3,N
1510590875.2,286046998.2,N
1510590895.1,286046999.5,N
1510590896.0,286046999.5,N
1510590915.8,286046998.7,N
1510590935.6,286046997.5,N
1510590955.5,286046995.6,N
1510590975.3,286046997.6,N
1510590995.1,286046997.0,N
1510591015.9,286046999.0,N
1510591035.7,286046999.5,N
1510591055.5,286047000.1,N
1510591075.3,286046999.2,N
1510591095.2,286046996.7,N
1510591115.0,286046997.9,N
1510591115.9,286046997.9,N
1510591135.7,286046996.8,N
1510591155.6,286046999.0,N
1510591175.4,286047000.6,N
1510591195.2,286047000.3,N
1510591215.1,286047002.3,N
1510591216.0,286047002.3,N
1510591235.8,286046999.7,N
1510591255.6,286047001.0,N
1510591275.5,286047001.8,N
1510591295.3,286047004.8,N
1510591315.1,286047005.6,N
1510591335.9,286047007.2,N
1510591355.7,286047002.9,N
1510591375.5,286047005.4,N
1510591395.4,286047005.9,N
1510591415.2,286047001.3,N
1510591435.0,286047005.9,N
1510591435.9,286047005.9,N
1510591455.8,286047004.6,N
1510591475.6,286047007.1,N
1510591495.4,286047007.7,N
1510591515.3,286047015.2,Y
1510591535.1,286047009.9,P
1510591536.0,286047009.9,N
1510591555.8,286047008.2,N
1510591575.7,286047013.5,Y
1510591595.5,286047004.8,P
1510591615.3,286047007.4,P
1510591635.1,286047005.4,P
1510591655.9,286047001.9,N
1510591675.7,286046999.1,N
1510591695.5,286046999.6,N
1510591715.4,286046999.1,N
1510591735.2,286046997.1,N
1510591755.0,286046996.5,N
1510591755.9,286046996.5,N
1510591775.8,286046998.9,N
1510591795.6,286046998.9,N
1510591815.4,286046996.4,N
1510591835.3,286046996.3,N
1510591855.1,286046996.0,N
1510591856.0,286046996.0,N
1510591875.8,286046993.9,N
1510591895.7,286046995.5,N
1510591915.5,286046996.0,N
1510591935.3,286046995.9,N
1510591955.1,286046995.1,N
1510591975.9,286046993.8,N
1510591995.7,286046992.5,N
1510592015.5,286046993.3,N
1510592035.4,286046998.7,N
1510592055.2,286047000.0,N
1510592075.0,286047000.7,N
1510592075.9,286047000.7,N
1510592095.8,286047001.1,N
1510592115.6,286046997.2,N
1510592135.4,286046997.7,N
1510592155.3,286046995.3,N
1510592175.1,286046996.4,N
1510592176.0,286046996.4,N
1510592195.8,286046998.6,N
1510592215.7,286046998.8,N
1510592235.5,286046998.1,N
1510592255.3,286047004.0,N
1510592275.2,286047007.4,N
1510592295.9,286047005.3,N
1510592315.7,286047002.0,N
1510592335.5,286047002.4,N
1510592355.4,286046998.6,N
1510592375.2,286046997.8,N
1510592395.0,286046996.8,N
1510592395.9,286046996.8,N
